Biggs Army Air Field / Ft. Bl, TX

8:08 AM MDT on October 18, 2017 (GMT -0600)
Biggs Army Air Field

Weather History for KBIF - March, 2014

Change the Weather History Date:

Monday, March 3, 2014

  Actual Average (KELP) Record (KELP)
Temperature  
Mean Temperature 51 °F -  
Max Temperature 60 °F 63 °F 85 °F (2009)
Min Temperature 42 °F 38 °F 14 °F (1971)
Degree Days  
Heating Degree Days 14    
Growing Degree Days 1 (Base 50)    
Moisture  
Dew Point 32 °F    
Average Humidity 49    
Maximum Humidity 81    
Minimum Humidity 29    
Precipitation  
Precipitation 0.00 in - - ()
Sea Level Pressure  
Sea Level Pressure 30.04 in    
Wind  
Wind Speed 4 mph (ESE)    
Max Wind Speed 7 mph    
Max Gust Speed -    
Visibility 7 miles    
Events      
Averages and records for this station are not official NWS values.
T = Trace of Precipitation, MM = Missing Value Source: NWS Daily Summary

Daily Weather History Graph

Daily Weather History Graph

Search for Another Location

Airport or City:

Trip Planner

Search our weather history database for the weather conditions in past years. The results will help you decide how hot, cold, wet, or windy it might be!

Date:

Astronomy

Mar. 03, 2014 Rise Set
Actual Time 6:30 AM MST 6:04 PM MST
Civil Twilight 6:05 AM MST 6:29 PM MST
Nautical Twilight 5:37 AM MST 6:57 PM MST
Astronomical Twilight 5:09 AM MST 7:26 PM MST
Moon 7:51 AM MST (3/3) 8:57 PM MST (3/3)
Length of Visible Light 12h 23m
Length of Day
11h 34m
Waxing Crescent, 8% of the Moon is Illuminated
Mar 3
Waxing Crescent
Mar 8
First Quarter
Mar 16
Full
Mar 23
Last Quarter
Mar 30
New

Hourly Weather History & Observations

Time (MST) Temp. Windchill Dew Point Humidity Pressure Visibility Wind Dir Wind Speed Gust Speed Precip Events Conditions
12:56 AM 46.4 °F 45.2 °F 39.2 °F 76% 30.06 in 7.0 mi NE 3.5 mph - N/A   Scattered Clouds
1:56 AM 44.6 °F - 37.4 °F 76% 30.07 in 7.0 mi North 2.3 mph - N/A   Scattered Clouds
2:56 AM 42.8 °F 40.1 °F 37.4 °F 81% 30.03 in 7.0 mi NNW 4.6 mph - N/A   Mostly Cloudy
3:56 AM 44.6 °F 43.1 °F 37.4 °F 76% 30.03 in 7.0 mi NNW 3.5 mph - N/A   Mostly Cloudy
4:56 AM 48.2 °F - 37.4 °F 66% 30.03 in 7.0 mi SE 5.8 mph - N/A   Mostly Cloudy
5:56 AM 47.7 °F - 34.9 °F 61% 30.06 in 7.0 mi SE 2.3 mph - N/A   Mostly Cloudy
6:56 AM 46.2 °F 44.1 °F 33.1 °F 60% 30.09 in 7.0 mi ESE 4.6 mph - N/A   Mostly Cloudy
7:56 AM 46.4 °F - 32.0 °F 57% 30.11 in 7.0 mi SE 2.3 mph - N/A   Mostly Cloudy
8:56 AM 48.2 °F - 32.0 °F 54% 30.12 in 7.0 mi SE 5.8 mph - N/A   Mostly Cloudy
9:56 AM 48.9 °F - 31.8 °F 52% 30.11 in 7.0 mi SE 5.8 mph - N/A   Overcast
10:56 AM 52.0 °F - 31.1 °F 45% 30.09 in 7.0 mi East 3.5 mph - N/A   Overcast
11:56 AM 54.7 °F - 30.4 °F 40% 30.05 in 7.0 mi East 5.8 mph - N/A   Mostly Cloudy
12:56 PM 57.0 °F - 29.3 °F 35% 30.03 in 7.0 mi ESE 4.6 mph - N/A   Mostly Cloudy
1:56 PM 59.0 °F - 28.4 °F 31% 30.00 in 7.0 mi ENE 4.6 mph - N/A   Mostly Cloudy
2:56 PM 60.6 °F - 28.4 °F 29% 29.99 in 7.0 mi ENE 3.5 mph - N/A   Partly Cloudy
3:56 PM 60.8 °F - 27.9 °F 29% 29.98 in 7.0 mi NNE 1.2 mph - N/A   Scattered Clouds
4:56 PM 60.3 °F - 27.7 °F 29% 29.97 in 7.0 mi East 4.6 mph - N/A   Partly Cloudy
5:56 PM 59.5 °F - 27.5 °F 30% 29.98 in 7.0 mi East 5.8 mph - N/A   Scattered Clouds
6:56 PM 57.7 °F - 28.0 °F 32% 29.99 in 7.0 mi ESE 5.8 mph - N/A   Partly Cloudy
7:56 PM 55.2 °F - 28.6 °F 36% 30.01 in 7.0 mi ESE 6.9 mph - N/A   Partly Cloudy
8:56 PM 52.3 °F - 28.0 °F 39% 30.03 in 7.0 mi SSE 4.6 mph - N/A   Scattered Clouds
9:56 PM 50.4 °F - 28.6 °F 43% 30.03 in 7.0 mi East 3.5 mph - N/A   Clear
10:56 PM 49.3 °F - 29.3 °F 46% 30.01 in 7.0 mi SW 2.3 mph - N/A   Clear
11:56 PM 48.2 °F - 30.2 °F 50% 30.01 in 7.0 mi SSW 5.8 mph - N/A   Clear